• In Uzbekistan
  • List of Countries
  • For 7 days
  • Water Temperature
  • Weather Map
  • Weather Widgets
  • user-avatar
    Login

    Hourly Weather Sakkhar

    Today, 20 February, Thursday

    Time Temperature Precipitation Wind Pressure Humidity
    00:00 +21°C° 0 mm 4 mps 752 mmHg 18%
    01:00 +21°C° 0 mm 5 mps 752 mmHg 20%
    02:00 +21°C° 0 mm 6 mps 752 mmHg 22%
    03:00 +20°C° 0 mm 6 mps 752 mmHg 27%
    04:00 +20°C° 0 mm 6 mps 753 mmHg 33%
    05:00 +19°C° 0 mm 6 mps 753 mmHg 38%
    06:00 +19°C° 0 mm 6 mps 753 mmHg 38%
    07:00 +19°C° 0 mm 5 mps 754 mmHg 38%
    08:00 +19°C° 0 mm 5 mps 755 mmHg 38%
    09:00 +21°C° 0 mm 5 mps 755 mmHg 32%
    10:00 +24°C° 0 mm 6 mps 756 mmHg 26%
    11:00 +27°C° 0 mm 6 mps 756 mmHg 20%
    12:00 +28°C° 0 mm 6 mps 755 mmHg 18%
    13:00 +29°C° 0 mm 5 mps 754 mmHg 16%
    14:00 +30°C° 0 mm 5 mps 754 mmHg 14%
    15:00 +30°C° 0 mm 5 mps 754 mmHg 13%
    16:00 +30°C° 0 mm 5 mps 754 mmHg 12%
    17:00 +30°C° 0 mm 5 mps 753 mmHg 10%
    18:00 +28°C° 0 mm 5 mps 754 mmHg 11%
    19:00 +26°C° 0 mm 4 mps 755 mmHg 12%
    20:00 +22°C° 0 mm 4 mps 755 mmHg 13%
    21:00 +21°C° 0 mm 4 mps 756 mmHg 20%
    22:00 +20°C° 0 mm 3 mps 756 mmHg 26%
    23:00 +19°C° 0 mm 3 mps 757 mmHg 33%

    Tomorrow, 21 February, Friday

    Time Temperature Precipitation Wind Pressure Humidity
    00:00 +18°C° 0 mm 3 mps 757 mmHg 35%
    01:00 +18°C° 0 mm 2 mps 756 mmHg 37%
    02:00 +17°C° 0 mm 2 mps 756 mmHg 40%
    03:00 +17°C° 0 mm 2 mps 756 mmHg 39%
    04:00 +17°C° 0 mm 2 mps 756 mmHg 39%
    05:00 +16°C° 0 mm 2 mps 756 mmHg 38%
    06:00 +17°C° 0 mm 2 mps 757 mmHg 34%
    07:00 +19°C° 0 mm 1 mps 757 mmHg 31%
    08:00 +20°C° 0 mm 1 mps 758 mmHg 27%
    09:00 +21°C° 0 mm 2 mps 758 mmHg 25%
    10:00 +25°C° 0 mm 2 mps 758 mmHg 22%
    11:00 +28°C° 0 mm 3 mps 758 mmHg 20%
    18:00 +29°C° 0 mm 4 mps 756 mmHg 18%
    19:00 +27°C° 0 mm 3 mps 757 mmHg 20%
    20:00 +25°C° 0 mm 3 mps 758 mmHg 23%
    21:00 +24°C° 0 mm 3 mps 758 mmHg 25%
    22:00 +22°C° 0 mm 3 mps 758 mmHg 28%
    23:00 +22°C° 0 mm 3 mps 758 mmHg 30%

    Day after tomorrow, 22 February, Saturday

    Time Temperature Precipitation Wind Pressure Humidity
    00:00 +21°C° 0 mm 3 mps 758 mmHg 33%
    01:00 +21°C° 0 mm 3 mps 758 mmHg 36%
    02:00 +20°C° 0 mm 3 mps 759 mmHg 38%
    03:00 +20°C° 0 mm 3 mps 758 mmHg 41%
    04:00 +20°C° 0 mm 3 mps 758 mmHg 43%
    05:00 +20°C° 0 mm 3 mps 758 mmHg 45%
    06:00 +20°C° 0 mm 3 mps 759 mmHg 44%
    07:00 +20°C° 0 mm 3 mps 760 mmHg 43%
    08:00 +20°C° 0 mm 3 mps 760 mmHg 42%
    09:00 +24°C° 0 mm 3 mps 760 mmHg 38%
    10:00 +26°C° 0 mm 3 mps 760 mmHg 34%
    11:00 +29°C° 0 mm 3 mps 761 mmHg 30%
    12:00 +30°C° 0 mm 3 mps 760 mmHg 27%
    13:00 +31°C° 0 mm 2 mps 759 mmHg 24%
    14:00 +32°C° 0 mm 2 mps 758 mmHg 22%
    15:00 +32°C° 0 mm 2 mps 757 mmHg 21%
    16:00 +32°C° 0 mm 2 mps 757 mmHg 20%
    17:00 +32°C° 0 mm 2 mps 757 mmHg 20%
    18:00 +30°C° 0 mm 2 mps 757 mmHg 23%
    19:00 +28°C° 0 mm 2 mps 757 mmHg 26%
    20:00 +25°C° 0 mm 2 mps 758 mmHg 30%
    21:00 +25°C° 0 mm 2 mps 758 mmHg 31%
    22:00 +24°C° 0 mm 1 mps 758 mmHg 32%
    23:00 +23°C° 0 mm 1 mps 758 mmHg 34%

    23 February, Sunday

    Time Temperature Precipitation Wind Pressure Humidity
    00:00 +23°C° 0 mm 1 mps 758 mmHg 34%
    01:00 +22°C° 0 mm 1 mps 757 mmHg 35%
    02:00 +22°C° 0 mm 1 mps 757 mmHg 36%
    03:00 +22°C° 0 mm 1 mps 757 mmHg 36%
    04:00 +21°C° 0 mm 1 mps 757 mmHg 36%
    05:00 +21°C° 0 mm 1 mps 756 mmHg 36%
    06:00 +22°C° 0 mm 1 mps 757 mmHg 34%
    07:00 +22°C° 0 mm 1 mps 758 mmHg 32%
    08:00 +23°C° 0 mm 1 mps 758 mmHg 30%
    09:00 +26°C° 0 mm 1 mps 758 mmHg 26%
    10:00 +28°C° 0 mm 1 mps 758 mmHg 23%
    11:00 +31°C° 0 mm 1 mps 758 mmHg 19%
    12:00 +32°C° 0 mm 1 mps 758 mmHg 18%
    13:00 +33°C° 0 mm 1 mps 757 mmHg 17%
    14:00 +33°C° 0 mm 1 mps 756 mmHg 16%
    15:00 +33°C° 0 mm 1 mps 756 mmHg 15%
    16:00 +33°C° 0 mm 1 mps 755 mmHg 15%
    17:00 +33°C° 0 mm 1 mps 755 mmHg 14%
    18:00 +31°C° 0 mm 1 mps 755 mmHg 17%
    19:00 +29°C° 0 mm 1 mps 755 mmHg 20%
    20:00 +26°C° 0 mm 2 mps 755 mmHg 23%
    21:00 +26°C° 0 mm 2 mps 756 mmHg 24%
    22:00 +25°C° 0 mm 2 mps 756 mmHg 25%
    23:00 +25°C° 0 mm 2 mps 756 mmHg 26%

    24 February, Monday

    Time Temperature Precipitation Wind Pressure Humidity
    00:00 +24°C° 0 mm 1 mps 755 mmHg 27%
    01:00 +23°C° 0 mm 1 mps 755 mmHg 29%
    02:00 +20°C° 0 mm 0 mps 755 mmHg 31%
    03:00 +20°C° 0 mm 0 mps 755 mmHg 32%
    04:00 +19°C° 0 mm 0 mps 754 mmHg 32%
    05:00 +19°C° 0 mm 0 mps 754 mmHg 33%
    06:00 +22°C° 0 mm 1 mps 755 mmHg 31%
    07:00 +23°C° 0 mm 1 mps 755 mmHg 29%
    08:00 +24°C° 0 mm 1 mps 756 mmHg 27%
    09:00 +27°C° 0 mm 2 mps 756 mmHg 24%
    10:00 +29°C° 0 mm 2 mps 756 mmHg 20%
    11:00 +33°C° 0 mm 3 mps 756 mmHg 17%
    12:00 +34°C° 0 mm 3 mps 755 mmHg 16%
    13:00 +35°C° 0 mm 3 mps 754 mmHg 15%
    14:00 +35°C° 0 mm 3 mps 753 mmHg 14%
    15:00 +35°C° 0 mm 2 mps 753 mmHg 13%
    16:00 +35°C° 0 mm 2 mps 752 mmHg 13%
    17:00 +34°C° 0 mm 1 mps 752 mmHg 12%
    18:00 +32°C° 0 mm 1 mps 752 mmHg 15%
    19:00 +29°C° 0 mm 1 mps 752 mmHg 18%
    20:00 +27°C° 0 mm 1 mps 753 mmHg 21%
    21:00 +26°C° 0 mm 2 mps 753 mmHg 21%
    22:00 +26°C° 0 mm 2 mps 753 mmHg 22%
    23:00 +25°C° 0 mm 2 mps 754 mmHg 23%

    25 February, Tuesday

    Time Temperature Precipitation Wind Pressure Humidity
    00:00 +24°C° 0 mm 1 mps 753 mmHg 25%
    01:00 +23°C° 0 mm 1 mps 753 mmHg 26%
    02:00 +22°C° 0 mm 1 mps 753 mmHg 28%
    03:00 +22°C° 0 mm 1 mps 753 mmHg 28%
    04:00 +22°C° 0 mm 1 mps 753 mmHg 28%
    05:00 +22°C° 0 mm 1 mps 753 mmHg 27%
    06:00 +23°C° 0 mm 1 mps 754 mmHg 26%
    07:00 +24°C° 0 mm 2 mps 754 mmHg 25%
    08:00 +25°C° 0 mm 2 mps 755 mmHg 24%
    09:00 +27°C° 0 mm 2 mps 755 mmHg 21%
    10:00 +30°C° 0 mm 2 mps 755 mmHg 18%
    11:00 +32°C° 0 mm 2 mps 755 mmHg 15%
    12:00 +34°C° 0 mm 2 mps 754 mmHg 14%
    13:00 +34°C° 0 mm 1 mps 754 mmHg 13%
    14:00 +35°C° 0 mm 1 mps 753 mmHg 12%
    15:00 +36°C° 0 mm 2 mps 753 mmHg 11%
    16:00 +36°C° 0 mm 2 mps 752 mmHg 11%
    17:00 +36°C° 0 mm 2 mps 752 mmHg 11%
    18:00 +34°C° 0 mm 2 mps 752 mmHg 13%
    19:00 +30°C° 0 mm 2 mps 753 mmHg 15%
    20:00 +28°C° 0 mm 2 mps 754 mmHg 17%
    21:00 +27°C° 0 mm 1 mps 754 mmHg 18%
    22:00 +26°C° 0 mm 1 mps 754 mmHg 19%
    23:00 +25°C° 0 mm 1 mps 754 mmHg 20%
    Show more